[[{"header":{"parameterUnit":"m.s-1","parameterCategory":2,"la1":30.2991,"la2":30.254,"lo1":-89.0895,"lo2":-89.0444,"dy":0.0017,"dx":0.0017,"nx":28,"ny":28,"refTime":"2024-05-09T09:00:00:Z","depth":"0","parameterNumber":2,"parameterNumberName":"U-component_of_CURRENTS"},"data":[0,0,0,0,0,0,0,0,0,0,0,0,0,0,0,0,0,0,0,0,0,0,0,0,0,0,0,0,0,0,0,0,0,0,0,0,0,0,0,0,0,0,0,0,0,0,0,0,0,0,0,0,0,0,0,0,0,0,0.2499,0.25,0,0.2513,0.2513,0.2513,0.2496,0.2496,0.2496,0.2495,0.2483,0.2483,0.2483,0,0,0,0,0,0,0,0,0,0,0,0,0,0.2478,0.2478,0.2499,0.25,0.25,0.2513,0.2513,0.2513,0.2496,0.2496,0.2495,0.2495,0.2483,0.2483,0.2483,0,0,0,0,0,0,0,0,0,0,0,0,0,0.2487,0.2478,0.2499,0.2495,0.2495,0.2513,0.2513,0.2513,0.2496,0.2496,0.2495,0.2495,0.2483,0.2483,0.2483,0.2495,0,0,0.2483,0.2483,0,0,0,0,0,0,0,0,0.2486,0.2487,0.2495,0.2496,0.2496,0.2505,0.2501,0.2507,0.2497,0.2493,0.2495,0.2494,0.249,0.2489,0.249,0.2495,0.2494,0.2483,0.2483,0.2483,0.2483,0,0,0,0,0,0,0,0.2485,0.2487,0.2502,0.2496,0.2496,0.2499,0.25,0.2502,0.2492,0.2494,0.2493,0.2499,0.2489,0.249,0.249,0.2494,0.2483,0.2483,0.2483,0.2483,0.2546,0.2548,0,0,0,0,0,0,0.2488,0.2486,0.2502,0.2503,0.2492,0.25,0.25,0.25,0.2493,0.2492,0.2499,0.2498,0.249,0.2489,0.2489,0.2538,0.2483,0.2483,0.2483,0.2544,0.2546,0.2548,0,0,0,0,0,0,0.2488,0.2489,0.2501,0.2497,0.2499,0.2502,0.2501,0.2501,0.2507,0.2498,0.2496,0.2507,0.249,0.2489,0.2505,0.2536,0.2483,0.2483,0.2542,0.2545,0.2547,0.2613,0,0,0,0,0,0,0.2487,0.2489,0.2492,0.2497,0.25,0.2525,0.2502,0.2502,0.2512,0.2511,0.2504,0.2502,0.2489,0.2505,0.2505,0.2535,0.2483,0.254,0.2544,0.2546,0.2609,0.2618,0.2625,0,0,0,0,0,0.2486,0.2492,0.2492,0.2494,0.2502,0.2526,0.2528,0.2526,0.2513,0.2526,0.2522,0.2502,0.2525,0.2507,0.2506,0.2537,0.2539,0.2543,0.2546,0.2605,0.2616,0.2625,0,0,0,0,0,0,0.2484,0.2492,0.2491,0.2499,0.2518,0.2524,0.2533,0.2533,0.2539,0.2534,0.2519,0.2518,0.2548,0.2534,0.2514,0.2565,0.253,0.2534,0.2576,0.2585,0.2593,0.2594,0.2483,0,0,0,0,0,0.2486,0.2491,0.2506,0.2515,0.2524,0.2531,0.2539,0.2541,0.2548,0.2549,0.2543,0.2544,0.2563,0.2566,0.2574,0.2597,0.2591,0.2618,0.2626,0.2633,0.2635,0.2661,0.2672,0.256,0.256,0.256,0,0,0.2485,0.2493,0.2494,0.2515,0.2524,0.2545,0.2534,0.2553,0.2571,0.2547,0.2565,0.2573,0.2577,0.2608,0.2619,0.2598,0.2664,0.2638,0.2644,0.2642,0.2666,0.2677,0.2687,0.2563,0.2562,0.2562,0,0,0.249,0.2496,0.2503,0.2524,0.2549,0.2559,0.2568,0.2582,0.2591,0.2618,0.261,0.2638,0.2649,0.2665,0.2674,0.2732,0.2709,0.2735,0.2771,0.2798,0.2807,0.2815,0.2826,0.2835,0.2734,0.2735,0.2735,0,0.249,0.2498,0.2512,0.2533,0.2549,0.2567,0.2586,0.2607,0.2624,0.2637,0.2631,0.2674,0.2681,0.2727,0.2753,0.275,0.2753,0.2733,0.2808,0.2815,0.2822,0.2832,0.2841,0.2738,0.2738,0.2737,0.2737,0,0.2502,0.2514,0.2525,0.2552,0.2577,0.2598,0.2631,0.2655,0.2668,0.2685,0.2733,0.275,0.277,0.2792,0.2793,0.2851,0.2833,0.2818,0.2781,0.2838,0.2844,0.2852,0.2743,0.2742,0.2741,0.274,0,0,0.2485,0.2522,0.2526,0.2535,0.2587,0.2602,0.2651,0.2693,0.2718,0.2752,0.2791,0.2842,0.2845,0.2857,0.2866,0.2901,0.2964,0.2885,0.2885,0.2893,0.3014,0.2957,0.296,0.2961,0.2962,0.2964,0.3,0,0.2488,0.2514,0.254,0.2568,0.2584,0.2625,0.2665,0.271,0.2751,0.2797,0.284,0.2882,0.2872,0.2894,0.2927,0.2962,0.2987,0.2955,0.2961,0.2961,0.2901,0.2968,0.288,0.2901,0.3007,0.3009,0.301,0,0.2487,0.2506,0.2529,0.2565,0.2576,0.26,0.2662,0.2704,0.2786,0.282,0.2872,0.2904,0.2973,0.2957,0.3023,0.3002,0.301,0.3032,0.3033,0.296,0.2919,0.2862,0.291,0.2849,0.3021,0.302,0.3019,0,0.2453,0.2493,0.2504,0.252,0.2573,0.2592,0.2628,0.2706,0.2747,0.2843,0.2884,0.2951,0.2991,0.3028,0.3065,0.3051,0.3133,0.3111,0.3062,0.3057,0.2972,0.2957,0.2956,0.3149,0.3149,0.3148,0.3148,0,0.244,0.2447,0.2484,0.249,0.2508,0.2563,0.2603,0.2655,0.2746,0.2793,0.2884,0.2931,0.3013,0.3065,0.3087,0.3098,0.314,0.3082,0.3071,0.2993,0.298,0.2911,0.2881,0.315,0.315,0.3149,0.3149,0,0.2397,0.2423,0.2432,0.2477,0.2488,0.2503,0.2578,0.2611,0.2707,0.2778,0.2814,0.2932,0.3002,0.3067,0.3138,0.3113,0.3041,0.3129,0.3027,0.3003,0.2881,0.2857,0.2599,0.2546,0.3084,0.3083,0.3082,0,0.2374,0.2374,0.2405,0.2408,0.2423,0.2459,0.2484,0.2579,0.2624,0.2762,0.2788,0.29,0.2954,0.3045,0.3053,0.3082,0.2986,0.2997,0.2953,0.2874,0.2841,0.2613,0.2573,0.2872,0.287,0.2868,0.2866,0,0.2331,0.234,0.2348,0.2357,0.2369,0.2386,0.2433,0.2464,0.2575,0.2642,0.2724,0.2791,0.2887,0.2895,0.2942,0.2945,0.2827,0.2952,0.2905,0.2706,0.2423,0.2367,0.2843,0.2847,0.2849,0.2851,0.2852,0.2852,0.2294,0.2285,0.2296,0.2291,0.2303,0.2302,0.2288,0.2354,0.2407,0.2479,0.2604,0.2654,0.276,0.2822,0.2796,0.2722,0.2661,0.2666,0.2655,0.2438,0.2338,0.2764,0.2731,0.2732,0.2733,0.2734,0.2734,0,0.224,0.2233,0.2231,0.2212,0.2183,0.2218,0.2234,0.2211,0.2223,0.2336,0.2402,0.2499,0.2517,0.2567,0.2551,0.2457,0.2292,0.2403,0.211,0.2104,0.254,0.249,0.236,0.236,0.236,0.236,0.236,0.236,0.2213,0.2182,0.2171,0.2094,0.2074,0.2009,0.1992,0.198,0.2029,0.2069,0.2114,0.221,0.2328,0.2348,0.2273,0.2233,0.2039,0.1868,0.1885,0.2272,0.2296,0.2319,0.2266,0.2091,0.209,0.1332,0.1327,0.1323]},{"header":{"parameterUnit":"m.s-1","parameterCategory":2,"la1":30.2991,"la2":30.254,"lo1":-89.0895,"lo2":-89.0444,"dy":0.0017,"dx":0.0017,"nx":28,"ny":28,"refTime":"2024-05-09T09:00:00:Z","depth":"0","parameterNumber":3,"parameterNumberName":"V-component_of_CURRENTS"},"data":[0,0,0,0,0,0,0,0,0,0,0,0,0,0,0,0,0,0,0,0,0,0,0,0,0,0,0,0,0,0,0,0,0,0,0,0,0,0,0,0,0,0,0,0,0,0,0,0,0,0,0,0,0,0,0,0,0,0,0.0344,0.0344,0,0.0332,0.0332,0.0332,0.0315,0.0315,0.0315,0.0315,0.0284,0.0283,0.0282,0,0,0,0,0,0,0,0,0,0,0,0,0,0.033,0.0331,0.0344,0.0344,0.0344,0.0332,0.0332,0.0332,0.0315,0.0315,0.0315,0.0315,0.0284,0.0283,0.0282,0,0,0,0,0,0,0,0,0,0,0,0,0,0.0328,0.0331,0.0344,0.0335,0.0334,0.0332,0.0332,0.0331,0.0315,0.0315,0.0315,0.0314,0.0284,0.0283,0.0282,0.0282,0,0,0.0279,0.0279,0,0,0,0,0,0,0,0,0.0329,0.0329,0.0336,0.0335,0.0334,0.0326,0.0316,0.0314,0.0315,0.0321,0.0315,0.0314,0.0297,0.0295,0.0292,0.0281,0.0279,0.0279,0.0279,0.0278,0.0278,0,0,0,0,0,0,0,0.0329,0.0329,0.0338,0.0336,0.0335,0.0324,0.0323,0.0315,0.031,0.0321,0.032,0.032,0.0296,0.0293,0.0291,0.0279,0.0279,0.0278,0.0278,0.0277,0.0269,0.0269,0,0,0,0,0,0,0.0334,0.033,0.0339,0.0338,0.0332,0.0325,0.0324,0.0328,0.031,0.0308,0.032,0.0319,0.0295,0.0292,0.029,0.0305,0.0278,0.0277,0.0277,0.0269,0.0269,0.0269,0,0,0,0,0,0,0.0333,0.0335,0.0339,0.0334,0.0334,0.0325,0.033,0.0328,0.0327,0.031,0.0307,0.0322,0.0295,0.0291,0.0292,0.0303,0.0277,0.0276,0.0268,0.0269,0.0269,0.0325,0,0,0,0,0,0,0.0333,0.0335,0.034,0.0334,0.0334,0.0346,0.033,0.0328,0.0328,0.0327,0.0311,0.0307,0.0294,0.0294,0.0291,0.0301,0.0275,0.0268,0.0268,0.0269,0.0322,0.0327,0.0331,0,0,0,0,0,0.0333,0.0345,0.0341,0.0342,0.0342,0.0347,0.0346,0.0338,0.0329,0.0335,0.0324,0.0308,0.0295,0.0293,0.029,0.03,0.0267,0.0268,0.0269,0.032,0.0326,0.0331,0,0,0,0,0,0,0.0342,0.0344,0.034,0.0351,0.0352,0.0345,0.0351,0.0342,0.0338,0.0337,0.0316,0.0313,0.0314,0.03,0.0298,0.0298,0.0277,0.0277,0.0317,0.0322,0.0326,0.0346,0.0274,0,0,0,0,0,0.0347,0.0357,0.0355,0.0365,0.0367,0.0359,0.0359,0.0355,0.035,0.0348,0.0334,0.0321,0.0315,0.0314,0.0302,0.0308,0.0289,0.031,0.0314,0.0318,0.0331,0.0313,0.0318,0.0272,0.0272,0.0272,0,0,0.0352,0.0356,0.036,0.0367,0.0367,0.0383,0.0359,0.0366,0.0381,0.0345,0.0357,0.0335,0.0318,0.0323,0.0323,0.0314,0.0319,0.0319,0.0323,0.0334,0.0315,0.0319,0.0323,0.0272,0.0272,0.0272,0,0,0.0375,0.0373,0.0391,0.0397,0.0403,0.0401,0.0405,0.0399,0.04,0.0409,0.0384,0.0373,0.0364,0.0355,0.035,0.0372,0.034,0.0361,0.0404,0.0387,0.0391,0.0394,0.0371,0.0372,0.0367,0.0367,0.0367,0,0.0381,0.0407,0.0397,0.0419,0.0433,0.0413,0.044,0.044,0.0434,0.0441,0.0422,0.0405,0.0383,0.0396,0.04,0.0384,0.0365,0.0388,0.0394,0.0397,0.0399,0.0375,0.0375,0.037,0.0369,0.0369,0.0369,0,0.0421,0.0441,0.0454,0.0478,0.0489,0.0509,0.051,0.0519,0.0513,0.0505,0.0509,0.0477,0.0468,0.0454,0.0436,0.0442,0.0419,0.0399,0.0384,0.0407,0.0379,0.0379,0.0374,0.0373,0.0372,0.0371,0,0,0.0439,0.0476,0.0481,0.0509,0.0526,0.0542,0.0572,0.0594,0.0617,0.0595,0.0623,0.0592,0.0558,0.055,0.0514,0.0499,0.0489,0.046,0.0458,0.0444,0.0446,0.044,0.0438,0.0468,0.0468,0.0469,0.0418,0,0.0477,0.0534,0.0541,0.0598,0.0631,0.0633,0.0665,0.0678,0.0678,0.0694,0.066,0.0662,0.06,0.0595,0.0568,0.0513,0.049,0.0504,0.0421,0.0419,0.0415,0.0438,0.0504,0.0466,0.0417,0.0417,0.0417,0,0.0519,0.0556,0.0619,0.0675,0.069,0.0716,0.0769,0.0796,0.0807,0.0806,0.0791,0.0755,0.073,0.0675,0.0591,0.0601,0.053,0.0481,0.0478,0.0456,0.0412,0.0435,0.0466,0.0437,0.0415,0.0415,0.0415,0,0.0552,0.0612,0.0669,0.0687,0.0741,0.0773,0.0803,0.0827,0.0869,0.0876,0.0898,0.0843,0.0832,0.0741,0.0625,0.0609,0.0533,0.0497,0.0423,0.0421,0.0454,0.0455,0.0456,0.044,0.044,0.0441,0.0441,0,0.0597,0.0642,0.0688,0.072,0.0797,0.0814,0.089,0.091,0.0951,0.101,0.0953,0.0981,0.0848,0.0784,0.0663,0.0545,0.0555,0.0441,0.0414,0.0474,0.0477,0.0434,0.0408,0.0439,0.0439,0.0439,0.044,0,0.0625,0.0655,0.0725,0.0788,0.0815,0.0869,0.0958,0.1011,0.1037,0.1116,0.1127,0.1089,0.1011,0.0869,0.0727,0.0607,0.0481,0.044,0.0516,0.0499,0.0404,0.0378,0.0353,0.0339,0.0359,0.0358,0.0358,0,0.0645,0.0683,0.0772,0.0821,0.0851,0.0934,0.0999,0.1054,0.112,0.1188,0.1235,0.1186,0.1178,0.0964,0.0758,0.0562,0.0492,0.0467,0.0449,0.0422,0.0374,0.0364,0.0354,0.0508,0.0509,0.051,0.0511,0,0.0683,0.0711,0.0767,0.0869,0.0943,0.1042,0.1136,0.1205,0.1283,0.1351,0.1427,0.143,0.1252,0.1109,0.0832,0.0674,0.0489,0.0476,0.0439,0.0491,0.0493,0.046,0.0506,0.0518,0.0517,0.0517,0.0516,0.0516,0.0707,0.0753,0.0826,0.0924,0.1016,0.1137,0.1226,0.1333,0.1457,0.1591,0.1585,0.1653,0.1459,0.1109,0.0875,0.0562,0.0539,0.0482,0.0451,0.0442,0.0448,0.0505,0.049,0.0489,0.0488,0.0488,0.0487,0,0.0738,0.0794,0.0879,0.0999,0.1101,0.1149,0.1312,0.1415,0.1569,0.1727,0.1818,0.1854,0.158,0.1269,0.0853,0.0616,0.0519,0.0482,0.0502,0.0487,0.0539,0.0565,0.058,0.058,0.058,0.058,0.058,0.058,0.0756,0.0836,0.0883,0.1047,0.1134,0.1284,0.1382,0.1545,0.1702,0.1946,0.2088,0.2189,0.2058,0.1276,0.0799,0.0643,0.0523,0.0472,0.0389,0.0445,0.0444,0.0442,0.0463,0.0455,0.0455,0.0394,0.0394,0.0393]}],[{"header":{"parameterUnit":"m.s-1","parameterCategory":2,"la1":30.2991,"la2":30.254,"lo1":-89.0895,"lo2":-89.0444,"dy":0.0017,"dx":0.0017,"nx":28,"ny":28,"refTime":"2024-05-09T09:00:00:Z","depth":"2","parameterNumber":2,"parameterNumberName":"U-component_of_CURRENTS"},"data":[0,0,0,0,0,0,0,0,0,0,0,0,0,0,0,0,0,0,0,0,0,0,0,0,0,0,0,0,0,0,0,0,0,0,0,0,0,0,0,0,0,0,0,0,0,0,0,0,0,0,0,0,0,0,0,0,0,0,0.2423,0.2424,0,0.2434,0.2434,0.2434,0.2422,0.2422,0.2421,0.2421,0.2415,0.2415,0.2415,0,0,0,0,0,0,0,0,0,0,0,0,0,0.2409,0.2409,0.2423,0.2424,0.2424,0.2434,0.2434,0.2434,0.2422,0.2422,0.2421,0.2421,0.2414,0.2415,0.2415,0,0,0,0,0,0,0,0,0,0,0,0,0,0.2415,0.2409,0.2423,0.2421,0.2421,0.2434,0.2434,0.2434,0.2422,0.2422,0.2421,0.2421,0.2414,0.2415,0.2415,0.2423,0,0,0.2415,0.2415,0,0,0,0,0,0,0,0,0.2415,0.2415,0.2421,0.2421,0.2421,0.2428,0.2427,0.243,0.2422,0.2419,0.2421,0.2421,0.2419,0.2419,0.2419,0.2423,0.2422,0.2415,0.2415,0.2415,0.2415,0,0,0,0,0,0,0,0.2414,0.2415,0.2425,0.2421,0.2421,0.2425,0.2425,0.2427,0.2419,0.2419,0.2419,0.2424,0.2419,0.2419,0.2419,0.2422,0.2415,0.2415,0.2415,0.2415,0.2477,0.2479,0,0,0,0,0,0,0.2417,0.2415,0.2425,0.2426,0.2419,0.2426,0.2426,0.2424,0.242,0.2419,0.2424,0.2423,0.2419,0.2419,0.2418,0.2469,0.2415,0.2415,0.2415,0.2476,0.2478,0.2479,0,0,0,0,0,0,0.2417,0.2418,0.2425,0.2423,0.2424,0.2427,0.2425,0.2425,0.2433,0.2424,0.2423,0.2434,0.2419,0.2418,0.2435,0.2467,0.2415,0.2415,0.2474,0.2476,0.2478,0.2544,0,0,0,0,0,0,0.2416,0.2417,0.2421,0.2423,0.2424,0.2446,0.2426,0.2425,0.2437,0.2436,0.2432,0.243,0.2418,0.2435,0.2435,0.2466,0.2415,0.2472,0.2475,0.2478,0.2539,0.2548,0.2555,0,0,0,0,0,0.2415,0.2421,0.242,0.2422,0.2427,0.2447,0.2449,0.2447,0.2438,0.2451,0.2448,0.2431,0.2454,0.2437,0.2436,0.2468,0.247,0.2474,0.2477,0.2536,0.2546,0.2555,0,0,0,0,0,0,0.2416,0.242,0.242,0.2426,0.2443,0.2446,0.2455,0.2456,0.2463,0.246,0.2447,0.2446,0.2476,0.2463,0.2444,0.2496,0.2462,0.2465,0.2506,0.2516,0.2523,0.2525,0.2415,0,0,0,0,0,0.2419,0.2423,0.2434,0.2441,0.245,0.2455,0.2463,0.2465,0.2471,0.2474,0.247,0.2472,0.2491,0.2495,0.2503,0.2526,0.252,0.2548,0.2556,0.2563,0.2565,0.259,0.26,0.2491,0.2491,0.2491,0,0,0.2419,0.2425,0.2425,0.2443,0.245,0.2468,0.2458,0.2477,0.2495,0.2472,0.2492,0.25,0.2504,0.2535,0.2547,0.2527,0.2593,0.2567,0.2573,0.2571,0.2595,0.2606,0.2615,0.2493,0.2493,0.2493,0,0,0.2424,0.243,0.2436,0.2454,0.2476,0.2484,0.2494,0.2506,0.2516,0.2542,0.2537,0.2565,0.2577,0.2592,0.2601,0.2657,0.2637,0.2662,0.2699,0.2724,0.2733,0.2741,0.2752,0.276,0.2662,0.2662,0.2662,0,0.2427,0.2432,0.2444,0.2462,0.2477,0.2493,0.251,0.253,0.2548,0.2561,0.2557,0.26,0.2607,0.2652,0.2679,0.2676,0.2679,0.2661,0.2734,0.2741,0.2748,0.2758,0.2766,0.2666,0.2665,0.2665,0.2665,0,0.2437,0.2447,0.2457,0.248,0.2503,0.2523,0.2553,0.2577,0.2592,0.2608,0.2656,0.2674,0.2695,0.2716,0.2718,0.2776,0.2759,0.2743,0.2708,0.2763,0.277,0.2777,0.2671,0.2669,0.2668,0.2667,0,0,0.2422,0.2454,0.2458,0.2466,0.2514,0.2526,0.2574,0.2613,0.2639,0.2674,0.2712,0.2763,0.2769,0.278,0.279,0.2824,0.2887,0.281,0.281,0.2818,0.2937,0.2878,0.288,0.2884,0.2886,0.2887,0.2923,0,0.2425,0.2447,0.247,0.2496,0.2509,0.2549,0.2588,0.263,0.2671,0.2716,0.2759,0.2801,0.2794,0.2818,0.285,0.2885,0.2909,0.2878,0.2884,0.2884,0.2823,0.2888,0.2638,0.2646,0.293,0.2931,0.2932,0,0.2424,0.244,0.246,0.2493,0.2503,0.2527,0.2586,0.2627,0.2706,0.2741,0.2793,0.2825,0.2894,0.2879,0.2945,0.2925,0.2934,0.2954,0.2955,0.2881,0.284,0.2636,0.2648,0.2944,0.2943,0.2942,0.2941,0,0.2393,0.2428,0.2437,0.2452,0.25,0.252,0.2555,0.263,0.2671,0.2765,0.2807,0.2872,0.2914,0.295,0.2987,0.2974,0.3053,0.3031,0.2981,0.2976,0.2754,0.2727,0.3068,0.3068,0.3068,0.3068,0.3068,0,0.238,0.2386,0.2419,0.2425,0.2443,0.2494,0.2535,0.2586,0.2674,0.272,0.2809,0.2855,0.2937,0.2987,0.3008,0.3018,0.306,0.3,0.2989,0.2771,0.2746,0.2991,0.2982,0.307,0.3069,0.3069,0.3069,0,0.234,0.2364,0.2371,0.2413,0.2425,0.2441,0.2514,0.2546,0.2641,0.271,0.2746,0.2859,0.2928,0.2991,0.3059,0.3033,0.3062,0.3045,0.2783,0.2741,0.2961,0.2955,0.3001,0.3,0.2998,0.2997,0.2996,0,0.2318,0.2318,0.2346,0.235,0.2365,0.2402,0.2426,0.2518,0.2561,0.2695,0.272,0.2829,0.2876,0.2962,0.2945,0.2964,0.3036,0.2743,0.2677,0.2974,0.2958,0.2954,0.295,0.2407,0.2401,0.2396,0.2393,0,0.2278,0.2286,0.2293,0.2302,0.2314,0.233,0.2377,0.2406,0.2513,0.2577,0.2654,0.2713,0.2782,0.2696,0.273,0.2706,0.2726,0.265,0.3024,0.2472,0.2419,0.2402,0.2416,0.2351,0.2355,0.2358,0.236,0.2362,0.2243,0.2234,0.2243,0.2239,0.2251,0.2248,0.2234,0.2291,0.2338,0.2386,0.2507,0.2497,0.2525,0.2453,0.2379,0.2313,0.2515,0.2402,0.2413,0.2431,0.2365,0.2313,0.2213,0.2216,0.2219,0.2221,0.2223,0,0.2187,0.2184,0.2181,0.2162,0.2128,0.2168,0.2181,0.214,0.214,0.2204,0.2243,0.2072,0.2018,0.2039,0.1871,0.1882,0.1833,0.1808,0.1719,0.1763,0.1801,0.17,0.1374,0.1371,0.1368,0.1366,0,0,0.2161,0.2127,0.2115,0.2037,0.2021,0.1948,0.193,0.1887,0.1893,0.1846,0.181,0.1942,0.1997,0.1669,0.1627,0.1468,0.16,0.1403,0.209,0.2031,0.2066,0.2155,0.2052,0,0,0,0,0]},{"header":{"parameterUnit":"m.s-1","parameterCategory":2,"la1":30.2991,"la2":30.254,"lo1":-89.0895,"lo2":-89.0444,"dy":0.0017,"dx":0.0017,"nx":28,"ny":28,"refTime":"2024-05-09T09:00:00:Z","depth":"2","parameterNumber":3,"parameterNumberName":"V-component_of_CURRENTS"},"data":[0,0,0,0,0,0,0,0,0,0,0,0,0,0,0,0,0,0,0,0,0,0,0,0,0,0,0,0,0,0,0,0,0,0,0,0,0,0,0,0,0,0,0,0,0,0,0,0,0,0,0,0,0,0,0,0,0,0,0.0264,0.0264,0,0.0252,0.0252,0.0252,0.0238,0.0238,0.0237,0.0237,0.0209,0.0209,0.0208,0,0,0,0,0,0,0,0,0,0,0,0,0,0.0254,0.0254,0.0264,0.0264,0.0264,0.0252,0.0252,0.0252,0.0238,0.0238,0.0237,0.0237,0.021,0.0209,0.0208,0,0,0,0,0,0,0,0,0,0,0,0,0,0.0251,0.0254,0.0264,0.0256,0.0255,0.0253,0.0252,0.0252,0.0238,0.0238,0.0237,0.0237,0.021,0.0209,0.0208,0.0207,0,0,0.0205,0.0205,0,0,0,0,0,0,0,0,0.0251,0.0251,0.0257,0.0257,0.0256,0.0247,0.0238,0.0236,0.0238,0.0244,0.0237,0.0237,0.0221,0.0219,0.0217,0.0206,0.0204,0.0205,0.0205,0.0204,0.0204,0,0,0,0,0,0,0,0.0251,0.0252,0.0259,0.0257,0.0256,0.0246,0.0246,0.0238,0.0233,0.0243,0.0242,0.0242,0.022,0.0218,0.0216,0.0204,0.0205,0.0204,0.0204,0.0203,0.0197,0.0197,0,0,0,0,0,0,0.0256,0.0252,0.0259,0.0258,0.0254,0.0247,0.0246,0.0249,0.0233,0.0231,0.0243,0.0242,0.0219,0.0217,0.0215,0.023,0.0204,0.0203,0.0203,0.0196,0.0197,0.0197,0,0,0,0,0,0,0.0256,0.0257,0.026,0.0255,0.0255,0.0247,0.0251,0.0249,0.025,0.0233,0.023,0.0245,0.0219,0.0216,0.0217,0.0228,0.0203,0.0202,0.0196,0.0196,0.0197,0.0249,0,0,0,0,0,0,0.0256,0.0257,0.0262,0.0256,0.0255,0.0267,0.0251,0.0249,0.025,0.0249,0.0234,0.0231,0.0219,0.0219,0.0217,0.0227,0.0201,0.0195,0.0196,0.0197,0.0247,0.0252,0.0256,0,0,0,0,0,0.0255,0.0267,0.0263,0.0264,0.0263,0.0267,0.0266,0.0259,0.0251,0.0257,0.0248,0.0232,0.0221,0.0219,0.0216,0.0226,0.0195,0.0196,0.0197,0.0245,0.0251,0.0256,0,0,0,0,0,0,0.0265,0.0266,0.0262,0.0273,0.0273,0.0265,0.0272,0.0263,0.026,0.026,0.024,0.0237,0.0239,0.0226,0.0223,0.0225,0.0204,0.0204,0.0242,0.0247,0.0251,0.027,0.0201,0,0,0,0,0,0.027,0.0279,0.0276,0.0286,0.0288,0.028,0.028,0.0276,0.0272,0.027,0.0257,0.0246,0.024,0.0239,0.0228,0.0234,0.0215,0.0236,0.024,0.0244,0.0256,0.0237,0.0241,0.02,0.02,0.02,0,0,0.0276,0.0278,0.0283,0.0289,0.0288,0.0303,0.028,0.0287,0.0302,0.0268,0.0281,0.0259,0.0243,0.0249,0.0248,0.024,0.0244,0.0245,0.0248,0.0259,0.0238,0.0242,0.0246,0.02,0.02,0.02,0,0,0.0297,0.0296,0.0313,0.0319,0.0324,0.0321,0.0325,0.032,0.0322,0.033,0.0307,0.0297,0.0288,0.0279,0.0275,0.0296,0.0264,0.0286,0.0327,0.0308,0.0311,0.0314,0.029,0.0291,0.0291,0.0291,0.0292,0,0.0304,0.0328,0.0319,0.0339,0.0353,0.0333,0.036,0.0359,0.0354,0.0361,0.0344,0.0327,0.0307,0.0317,0.0322,0.0307,0.0287,0.0311,0.0314,0.0317,0.0319,0.0294,0.0293,0.0294,0.0294,0.0293,0.0293,0,0.0342,0.0362,0.0374,0.0396,0.0406,0.0426,0.0427,0.0436,0.043,0.0422,0.0426,0.0396,0.0387,0.0374,0.0356,0.0361,0.0339,0.0319,0.0304,0.0326,0.0298,0.0297,0.0298,0.0297,0.0296,0.0295,0,0,0.036,0.0395,0.04,0.0427,0.0442,0.0458,0.0486,0.0507,0.0529,0.0508,0.0533,0.0504,0.0473,0.0465,0.0431,0.0414,0.0402,0.0377,0.0375,0.0359,0.0356,0.0351,0.0348,0.0381,0.0381,0.0381,0.0329,0,0.0397,0.0451,0.0457,0.0511,0.0543,0.0544,0.0576,0.0587,0.0587,0.0601,0.0567,0.057,0.0512,0.0509,0.048,0.0426,0.0402,0.0418,0.0333,0.0331,0.0328,0.0348,0.0346,0.0301,0.0327,0.0327,0.0327,0,0.0438,0.0472,0.0532,0.0586,0.06,0.0624,0.0675,0.0701,0.071,0.0709,0.0694,0.0659,0.0634,0.0582,0.0497,0.0509,0.0439,0.039,0.0386,0.0366,0.0324,0.0283,0.0297,0.0324,0.0324,0.0325,0.0325,0,0.047,0.0527,0.0581,0.0599,0.0649,0.0681,0.0709,0.0731,0.0771,0.0777,0.0798,0.0743,0.0732,0.0641,0.0529,0.0515,0.0435,0.04,0.0328,0.0326,0.0301,0.0297,0.0341,0.0342,0.0342,0.0342,0.0342,0,0.0513,0.0556,0.06,0.0631,0.0706,0.0722,0.0795,0.0814,0.0853,0.0909,0.0852,0.0877,0.0747,0.0682,0.0564,0.0448,0.0456,0.0345,0.0318,0.0318,0.0317,0.032,0.0318,0.034,0.034,0.0341,0.0341,0,0.0541,0.0569,0.0637,0.0697,0.0724,0.0777,0.0864,0.0914,0.0938,0.1013,0.1024,0.0983,0.0905,0.0765,0.0623,0.0506,0.0388,0.034,0.0349,0.0325,0.028,0.0281,0.026,0.026,0.0259,0.0259,0.0259,0,0.0562,0.0598,0.0684,0.0732,0.0762,0.0843,0.0906,0.0958,0.102,0.1083,0.1127,0.1076,0.1063,0.0849,0.0638,0.0442,0.0402,0.0296,0.0271,0.0299,0.0274,0.0276,0.0278,0.0249,0.0248,0.0248,0.0248,0,0.0599,0.0626,0.0681,0.078,0.0852,0.0948,0.1039,0.1105,0.1179,0.124,0.1308,0.1305,0.1118,0.0923,0.0647,0.0499,0.0328,0.0285,0.0315,0.0278,0.0286,0.0263,0.0265,0.0246,0.0246,0.0246,0.0246,0.0246,0.0624,0.0668,0.0739,0.0835,0.0925,0.1041,0.1127,0.1221,0.1336,0.1432,0.1431,0.1418,0.1196,0.0848,0.0598,0.032,0.0349,0.0229,0.023,0.0231,0.0248,0.0256,0.0212,0.0212,0.0212,0.0212,0.0212,0,0.0652,0.0709,0.0792,0.0909,0.1004,0.1055,0.1211,0.1287,0.1419,0.1502,0.156,0.133,0.1121,0.0854,0.0464,0.0244,0.0206,0.0142,0.0148,0.0153,0.0156,0.0169,0.0111,0.011,0.0109,0.0109,0,0,0.0669,0.0745,0.079,0.0948,0.1036,0.1172,0.1266,0.1375,0.1461,0.153,0.1525,0.1511,0.1207,0.0892,0.0584,0.0354,0.0297,0.029,0.0397,0.0447,0.0453,0.0234,0.0263,0,0,0,0,0]}],[{"header":{"parameterUnit":"m.s-1","parameterCategory":2,"la1":30.2991,"la2":30.254,"lo1":-89.0895,"lo2":-89.0444,"dy":0.0017,"dx":0.0017,"nx":28,"ny":28,"refTime":"2024-05-09T09:00:00:Z","depth":"4","parameterNumber":2,"parameterNumberName":"U-component_of_CURRENTS"},"data":[0,0,0,0,0,0,0,0,0,0,0,0,0,0,0,0,0,0,0,0,0,0,0,0,0,0,0,0,0,0,0,0,0,0,0,0,0,0,0,0,0,0,0,0,0,0,0,0,0,0,0,0,0,0,0,0,0,0,0.1544,0.1545,0,0.157,0.157,0.157,0.161,0.1611,0.1612,0.1613,0.1682,0.1683,0.1684,0,0,0,0,0,0,0,0,0,0,0,0,0,0.1533,0.1533,0.1544,0.1545,0.1545,0.157,0.157,0.157,0.161,0.1611,0.1612,0.1613,0.1682,0.1683,0.1684,0,0,0,0,0,0,0,0,0,0,0,0,0,0.1545,0.1533,0.1544,0.1569,0.1571,0.157,0.157,0.157,0.161,0.1611,0.1612,0.1613,0.1681,0.1683,0.1684,0.167,0,0,0.1689,0.169,0,0,0,0,0,0,0,0,0.1544,0.1545,0.1565,0.1567,0.157,0.1589,0.1591,0.1606,0.161,0.1594,0.1613,0.1614,0.1655,0.1658,0.1659,0.1674,0.1677,0.169,0.1691,0.1691,0.1692,0,0,0,0,0,0,0,0.1543,0.1544,0.1553,0.1565,0.1568,0.1579,0.1582,0.1594,0.1617,0.1596,0.1599,0.1603,0.1656,0.1657,0.1661,0.1678,0.169,0.1691,0.1692,0.1693,0.1795,0.1797,0,0,0,0,0,0,0.154,0.1543,0.1553,0.1554,0.1561,0.1578,0.1582,0.1581,0.1617,0.1623,0.1602,0.1604,0.1654,0.1659,0.1663,0.1747,0.1691,0.1693,0.1694,0.1793,0.1795,0.1797,0,0,0,0,0,0,0.154,0.1541,0.1552,0.1551,0.1553,0.1577,0.1576,0.1581,0.1616,0.1621,0.1628,0.1636,0.1655,0.1661,0.1707,0.1746,0.1694,0.1695,0.1791,0.1794,0.1796,0.1851,0,0,0,0,0,0,0.1539,0.154,0.1557,0.155,0.1553,0.1575,0.1575,0.158,0.1615,0.162,0.1652,0.1658,0.1656,0.1705,0.1709,0.1748,0.1696,0.1789,0.1792,0.1795,0.1847,0.1855,0.1862,0,0,0,0,0,0.1539,0.1549,0.1558,0.156,0.1569,0.1576,0.158,0.16,0.1616,0.1636,0.1662,0.1659,0.1729,0.1707,0.1712,0.1752,0.1787,0.1791,0.1795,0.1844,0.1854,0.1862,0,0,0,0,0,0,0.1555,0.1554,0.1563,0.1575,0.1588,0.1584,0.1608,0.1619,0.1653,0.167,0.1675,0.1682,0.1739,0.1737,0.1714,0.1792,0.176,0.1765,0.1795,0.1805,0.1812,0.1812,0.1698,0,0,0,0,0,0.1565,0.1575,0.1576,0.1592,0.16,0.1611,0.1625,0.1638,0.1656,0.1674,0.1696,0.1724,0.1751,0.1773,0.1792,0.1831,0.1831,0.1862,0.187,0.1876,0.188,0.1916,0.1927,0.181,0.181,0.181,0,0,0.1576,0.1579,0.1586,0.1597,0.161,0.1624,0.1624,0.1652,0.1677,0.1675,0.1731,0.1752,0.1767,0.1814,0.1839,0.1823,0.1911,0.1881,0.1886,0.1887,0.1921,0.1932,0.1942,0.1813,0.1812,0.1812,0,0,0.1589,0.1608,0.1617,0.163,0.1654,0.166,0.1676,0.1694,0.1722,0.1766,0.1777,0.1822,0.1862,0.188,0.1892,0.1953,0.1949,0.1969,0.2009,0.2044,0.2053,0.2062,0.2077,0.2086,0.1973,0.1973,0.1973,0,0.1609,0.1612,0.1625,0.1637,0.1654,0.1679,0.1696,0.1723,0.1759,0.1785,0.1798,0.1873,0.1891,0.194,0.1968,0.1971,0.1984,0.1971,0.2053,0.2061,0.2069,0.2082,0.2092,0.1976,0.1976,0.1976,0.1976,0,0.1613,0.1634,0.1644,0.1666,0.169,0.1712,0.1741,0.1782,0.1823,0.1845,0.1918,0.1946,0.1989,0.2009,0.2011,0.2079,0.2068,0.2057,0.2026,0.2084,0.2094,0.2104,0.1981,0.198,0.1979,0.1978,0,0,0.1605,0.1639,0.1648,0.1663,0.1709,0.172,0.1778,0.1821,0.1865,0.1921,0.1977,0.2036,0.2061,0.2078,0.2093,0.213,0.22,0.2127,0.2127,0.2136,0.2274,0.2109,0.2102,0.2209,0.2211,0.2212,0.2258,0,0.1609,0.163,0.1653,0.169,0.1702,0.1751,0.1797,0.1849,0.1907,0.1972,0.2022,0.2087,0.2084,0.2127,0.2161,0.2198,0.2227,0.2188,0.2222,0.2223,0.2064,0.2108,0.2219,0.2265,0.2267,0.2269,0.227,0,0.1595,0.1614,0.1645,0.1694,0.1707,0.1745,0.1826,0.1873,0.1967,0.2017,0.2089,0.2133,0.2211,0.22,0.2279,0.2259,0.2274,0.2289,0.2291,0.2122,0.2074,0.2197,0.2285,0.2284,0.2283,0.2282,0.2281,0,0.1558,0.1605,0.1632,0.1649,0.1712,0.1754,0.1805,0.1894,0.1947,0.2064,0.2121,0.22,0.2263,0.2302,0.2338,0.2327,0.2408,0.2389,0.2247,0.2235,0.2346,0.2336,0.2435,0.2435,0.2435,0.2435,0.2435,0,0.1528,0.1553,0.1624,0.1636,0.1685,0.1745,0.1819,0.1883,0.1988,0.2044,0.215,0.2197,0.2298,0.2349,0.2364,0.2325,0.2427,0.2255,0.2237,0.2367,0.236,0.2352,0.2341,0.2436,0.2436,0.2436,0.2435,0,0.1473,0.152,0.1553,0.1633,0.1666,0.1707,0.182,0.1863,0.1983,0.2066,0.2113,0.2228,0.2287,0.2351,0.2416,0.234,0.2334,0.2292,0.2428,0.2417,0.2132,0.2125,0.2135,0.213,0.2125,0.2121,0.2118,0,0.144,0.1453,0.1542,0.1568,0.1612,0.1688,0.1732,0.1852,0.1898,0.2051,0.2072,0.2186,0.2241,0.2197,0.2273,0.2277,0.2247,0.2221,0.217,0.2121,0.2103,0.2103,0.2102,0.2111,0.2109,0.2108,0.2107,0,0.1377,0.1426,0.1455,0.151,0.1563,0.1606,0.1686,0.1707,0.1834,0.196,0.1982,0.2007,0.2059,0.209,0.2108,0.2106,0.2227,0.2172,0.2181,0.2134,0.2092,0.2078,0.2083,0.2091,0.2093,0.2095,0.2096,0,0.1341,0.1346,0.1395,0.1427,0.1489,0.1499,0.1553,0.1593,0.1652,0.1816,0.1811,0.1924,0.2032,0.2001,0.2016,0.2003,0.1969,0.1891,0.1914,0.1932,0.1842,0.1758,0.1639,0,0,0,0,0,0.129,0.1279,0.1304,0.1324,0.1378,0.1413,0.1503,0.1559,0.1682,0.1647,0.1725,0.1761,0.1776,0.1832,0.1777,0.1929,0.1982,0.1855,0.1907,0.2003,0.2021,0.1932,0,0,0,0,0,0,0.1254,0.1276,0.1267,0.123,0.1226,0.1269,0.132,0.1403,0.1393,0.1527,0.1549,0.1643,0.1694,0.1791,0.1741,0.1757,0.1748,0.1927,0.1921,0.1992,0.2009,0.2024,0.1939,0,0,0,0,0]},{"header":{"parameterUnit":"m.s-1","parameterCategory":2,"la1":30.2991,"la2":30.254,"lo1":-89.0895,"lo2":-89.0444,"dy":0.0017,"dx":0.0017,"nx":28,"ny":28,"refTime":"2024-05-09T09:00:00:Z","depth":"4","parameterNumber":3,"parameterNumberName":"V-component_of_CURRENTS"},"data":[0,0,0,0,0,0,0,0,0,0,0,0,0,0,0,0,0,0,0,0,0,0,0,0,0,0,0,0,0,0,0,0,0,0,0,0,0,0,0,0,0,0,0,0,0,0,0,0,0,0,0,0,0,0,0,0,0,0,0.0141,0.0141,0,0.014,0.014,0.014,0.0135,0.0135,0.0135,0.0135,0.0125,0.0125,0.0125,0,0,0,0,0,0,0,0,0,0,0,0,0,0.013,0.013,0.0141,0.0141,0.0141,0.014,0.014,0.014,0.0135,0.0135,0.0135,0.0135,0.0125,0.0125,0.0125,0,0,0,0,0,0,0,0,0,0,0,0,0,0.0132,0.013,0.0141,0.0139,0.0138,0.014,0.014,0.014,0.0135,0.0135,0.0135,0.0135,0.0125,0.0125,0.0125,0.0126,0,0,0.0124,0.0124,0,0,0,0,0,0,0,0,0.0132,0.0133,0.0139,0.0139,0.0139,0.0138,0.0133,0.0135,0.0135,0.0136,0.0135,0.0134,0.0129,0.0128,0.0128,0.0126,0.0125,0.0124,0.0124,0.0124,0.0123,0,0,0,0,0,0,0,0.0132,0.0133,0.0141,0.0139,0.0139,0.0135,0.0135,0.0133,0.0133,0.0136,0.0136,0.0136,0.0128,0.0128,0.0128,0.0125,0.0124,0.0124,0.0123,0.0123,0.0132,0.0132,0,0,0,0,0,0,0.0133,0.0133,0.0141,0.0141,0.0135,0.0135,0.0135,0.0138,0.0133,0.0132,0.0136,0.0136,0.0129,0.0128,0.0127,0.0143,0.0124,0.0123,0.0123,0.0132,0.0132,0.0133,0,0,0,0,0,0,0.0133,0.0134,0.0141,0.0136,0.0137,0.0135,0.0139,0.0138,0.0142,0.0133,0.0132,0.014,0.0129,0.0128,0.0135,0.0142,0.0123,0.0123,0.0131,0.0132,0.0132,0.0166,0,0,0,0,0,0,0.0133,0.0134,0.0139,0.0137,0.0137,0.0149,0.0139,0.0138,0.0142,0.0141,0.0137,0.0135,0.0128,0.0136,0.0135,0.0142,0.0123,0.0131,0.0132,0.0132,0.0165,0.0168,0.0171,0,0,0,0,0,0.0132,0.0141,0.014,0.0141,0.0144,0.0149,0.0149,0.0147,0.0142,0.0149,0.0147,0.0136,0.0139,0.0136,0.0135,0.0142,0.013,0.0131,0.0132,0.0163,0.0167,0.017,0,0,0,0,0,0,0.0139,0.0141,0.014,0.0149,0.0151,0.0148,0.0155,0.0151,0.0154,0.0155,0.0144,0.0143,0.015,0.0143,0.0139,0.0146,0.0131,0.0132,0.0155,0.0159,0.0162,0.0172,0.0123,0,0,0,0,0,0.0143,0.0151,0.015,0.0159,0.0162,0.0159,0.0161,0.016,0.016,0.0162,0.0157,0.0153,0.0153,0.0154,0.0151,0.0158,0.014,0.016,0.0163,0.0166,0.0173,0.0152,0.0153,0.0135,0.0135,0.0135,0,0,0.0147,0.015,0.0155,0.0161,0.0163,0.0175,0.016,0.0168,0.0181,0.016,0.0176,0.0164,0.0157,0.0164,0.0166,0.016,0.0161,0.0167,0.0169,0.0175,0.0153,0.0154,0.0156,0.0136,0.0136,0.0136,0,0,0.0162,0.0164,0.0177,0.0183,0.019,0.019,0.0194,0.0195,0.0199,0.0211,0.0197,0.0192,0.0194,0.0188,0.0185,0.0203,0.0177,0.0199,0.0224,0.0203,0.0204,0.0205,0.0182,0.018,0.0201,0.0201,0.0201,0,0.0167,0.0186,0.0182,0.0198,0.021,0.02,0.022,0.0222,0.0225,0.0231,0.0222,0.0218,0.0207,0.0214,0.0218,0.021,0.0192,0.0212,0.0207,0.0208,0.0208,0.0184,0.0182,0.0203,0.0203,0.0203,0.0202,0,0.0193,0.021,0.022,0.0239,0.0249,0.0265,0.0269,0.0281,0.0281,0.0277,0.0283,0.0265,0.0263,0.0254,0.0243,0.0241,0.0225,0.0212,0.0198,0.0212,0.0185,0.0183,0.0205,0.0205,0.0204,0.0204,0,0,0.0199,0.0232,0.0237,0.0258,0.0275,0.0288,0.0313,0.0331,0.0348,0.0338,0.0356,0.034,0.0319,0.0315,0.0293,0.0273,0.0254,0.0247,0.0245,0.0224,0.0204,0.0191,0.0187,0.0237,0.0237,0.0237,0.0183,0,0.0223,0.0265,0.0275,0.0318,0.0342,0.035,0.0377,0.0389,0.0391,0.0404,0.038,0.0386,0.0346,0.0348,0.0319,0.0276,0.0249,0.027,0.0193,0.0191,0.0179,0.0184,0.0236,0.018,0.018,0.0179,0.0179,0,0.0247,0.0275,0.0322,0.037,0.0381,0.0405,0.0448,0.0472,0.048,0.0482,0.0472,0.0449,0.0427,0.0391,0.0316,0.0331,0.0272,0.0229,0.0226,0.0202,0.0174,0.0164,0.0174,0.0174,0.0174,0.0175,0.0175,0,0.026,0.031,0.0352,0.0368,0.0415,0.0445,0.0473,0.0494,0.0527,0.0534,0.0552,0.0506,0.0503,0.0423,0.0333,0.0325,0.0245,0.0222,0.0151,0.0149,0.0161,0.0161,0.0163,0.0163,0.0163,0.0163,0.0163,0,0.0282,0.0318,0.0365,0.0389,0.0451,0.0473,0.0533,0.0554,0.0589,0.063,0.0594,0.0608,0.051,0.0453,0.0355,0.0249,0.0258,0.0159,0.0137,0.0176,0.0178,0.0159,0.0159,0.0161,0.0161,0.0162,0.0162,0,0.029,0.032,0.0374,0.0433,0.046,0.0506,0.0588,0.0627,0.0655,0.0711,0.0723,0.0691,0.0619,0.0509,0.0383,0.0289,0.0182,0.0138,0.0194,0.0175,0.0092,0.0095,0.0056,0.0055,0.0054,0.0054,0.0053,0,0.0297,0.0326,0.0406,0.0448,0.048,0.0552,0.0607,0.066,0.0707,0.0759,0.0788,0.0745,0.0705,0.0524,0.0394,0.0209,0.0174,0.0109,0.0092,0.01,0.0082,0.0086,0.009,0.0052,0.0052,0.0052,0.0051,0,0.0311,0.034,0.0386,0.0469,0.0535,0.0617,0.0697,0.0738,0.0804,0.0831,0.0844,0.0762,0.068,0.053,0.0391,0.0253,0.0147,0.01,0.01,0.0084,0.0095,0.0079,0.0083,0.0049,0.0049,0.005,0.005,0,0.0321,0.0352,0.0412,0.0489,0.0574,0.0658,0.0702,0.0766,0.082,0.0875,0.0873,0.0792,0.0747,0.0553,0.0423,0.0291,0.0245,0.0179,0.0174,0.0175,0.022,0.0252,0.0239,0,0,0,0,0,0.0327,0.0363,0.0429,0.0514,0.0598,0.0651,0.0755,0.0793,0.0857,0.0872,0.0878,0.0803,0.0629,0.0557,0.0423,0.0387,0.0208,0.0222,0.0126,0.0035,0.0038,0.0068,0,0,0,0,0,0,0.033,0.0386,0.0421,0.0521,0.058,0.0677,0.0745,0.0789,0.0803,0.0844,0.0759,0.074,0.0574,0.0702,0.041,0.0373,0.0286,0.0151,0.0148,0.0034,0.0036,0.0039,0.0071,0,0,0,0,0]}]]